OPS 4682 DEB, 38380

Orbit data source: Space-Track

OPS 4682 DEB, 38380 is space debris in LEO originally from a launch on Sat, 03 Apr 1965 UTC launched from the Air Force Western Test Range (AFWTR). Debris objects in space refer to the collection of defunct objects orbiting the Earth. Examples of debris include non-operational satellites, rocket bodies, and fragments generated from explosions, collisions, or faulty payload assembly.

Loading next visibility...
Identifier
38380, 1965-027CH
Orbit
LEO
Country
Flag of USUS
Related business
Manufacturer
Unknown
Mission
Spacecraft
Bus & Motor
Unknown
Mass
Unknown
Launch date (UTC)
1965-04-03 (61 years ago)
Launch vehicle
Unknown
Launch site
Air Force Western Test Range (AFWTR)
Object type
Payload
Rocket body
Debris
Shape & HBR
Unknown shape, 0.1 m
Radar Cross Section
Small (<0.1 m²)

Expand to show TLE details & history
Last TLE update: 20 hours ago

TLE from 20 hours ago
0 OPS 4682 DEB
1 38380U 65027CH  26262.92741205 -.00000188  00000-0 -65191-3 0  9994
2 38380  90.2571 323.5034 0021262  82.3481 278.0054 12.99907459589921
Epoch: 2026-09-19T22:15Z
TLE epoch observation values (Epoch: 2026-09-19T22:15:28.401Z)
Latitude
-0.00009°
Longitude
-9.19386°
Altitude
1,263.104 km
Speed
7.225 km/s
True Right ascension
21h 34m 00s
True Declination
0° 00' 00"
Sunlit
Object was in full shadow at epoch
Visualization orbit readout
Latitude
Unknown
Longitude
Unknown
Altitude
Unknown
Speed
Unknown
Apparent Right ascension
Unknown
Apparent Declination
Unknown
Sunlit
N/A
Visualization observer readout
Local Sidereal Time
10:58:08
Azimuth
Unknown
Elevation
Unknown
Doppler factor
Unknown
Orbital elements
Apogee altitude
1,275.816 km
Perigee altitude
1,243.337 km
Semi-major axis
7,637.713 km
Eccentricity
0.00213
Inclination
90.2571°
RAAN
323.5034°
Arg. of periapsis
82.3481°
True anomaly
277.76404°
Mean anomaly
278.0054°
Eccentric anomaly
277.88473°
Mean motion
3.25161 °/min
Orbital period
110.71 mins
BSTAR
-0.00065191
Loading maneuver chart data...
Computing Atmospheric mass density...
Loading historical data...
Loading historical data...
Loading historical data...
Loading historical data...
Loading historical data...
Loading historical data...
Loading historical data...

Documentation

Showing up to 5 results
|